Regional Weather Roundup
Issued by NWS Newport/Morehead, NC

Current Version | Previous Version | Graphics & Text | Print | Product List | Glossary On
Versions: 1 2 3 4 5 6 7 8 9 10 11 12 13 14 15 16 17 18 19 20 21 22 23 24 25 26 27 28 29 30 31 32 33 34 35 36 37 38 39 40 41 42 43 44 45 46 47 48 49 50
000 ASUS42 KMHX 161825 RWRMHX WEATHER ROUNDUP FOR EASTERN NORTH CAROLINA NATIONAL WEATHER SERVICE NEWPORT/MOREHEAD CITY NC 100 PM EST SAT DEC 16 2017 NOTE: "FAIR" INDICATES FEW OR NO CLOUDS BELOW 12,000 FEET WITH NO SIGNIFICANT WEATHER AND/OR OBSTRUCTIONS TO VISIBILITY NCZ015>017-031-032-045>047-102-103-161900- NORTH COAST CITY SKY/WX TMP DP RH WIND PRES REMARKS EDENTON SUNNY 47 24 41 CALM 30.24F ELIZABETH CITY SUNNY 45 23 42 W5 30.23S KITTY HAWK CLEAR 42 24 47 CALM 30.22R MANTEO SUNNY 43 22 43 N12 30.24R $$ NCZ045>047-081-094-103-104-161900- CENTRAL COAST CITY SKY/WX TMP DP RH WIND PRES REMARKS FRISCO SUNNY 45 26 47 W6 30.21F $$ NCZ095-097-098-100-101-161900- SOUTHERN COAST CITY SKY/WX TMP DP RH WIND PRES REMARKS BEAUFORT SUNNY 45 25 45 SW6 30.23F CEDAR ISLAND NOT AVBL JACKSONVILLE SUNNY 48 24 39 VRB6 30.24F PINEY ISLAND N/A N/A N/A N/A SW8 30.22F WILMINGTON SUNNY 50 23 34 CALM 30.25F $$ NCZ011>013-027>030-043-044-078>080-089-090>093-098-161900- COASTAL PLAIN CITY SKY/WX TMP DP RH WIND PRES REMARKS AHOSKIE SUNNY 44 21 41 CALM 30.22F CLINTON SUNNY 48 26 42 SW6 30.25F ELIZABETHTOWN NOT AVBL GOLDSBORO SUNNY 50 23 34 W7 30.22F GREENVILLE SUNNY 46 23 39 N6 30.24F HAVELOCK NOT AVBL KENANSVILLE SUNNY 48 23 37 W7 30.24F KINSTON SUNNY 48 23 37 NW6 30.25S NEW BERN SUNNY 47 25 42 W7 30.24F RICHLANDS SUNNY 49 25 39 SW8 30.25F ROCKY MOUNT SUNNY 47 22 37 W5 30.23F WASHINGTON SUNNY 46 21 37 NW6 30.24S WHITEVILLE SUNNY 49 24 38 W5 30.25F $$ AMZ130-135-150-152-154-156-158-170-250-252-270-ANZ085-086-088-633-658-670-161900- MARINE OBSERVATIONS STATION/POSITION TIME TEMP WIND PRES WAVE SWELL AIR SEA DIR/SP/G HT/PER HT/PER (UTC) (F) (DEG/KT/KT) (MB) (FT/S) (FT/S) CHESAPEAKE LIGHT NOT AVBL 64 E VA BEACH 1750 44 57 310/ 10/ 12 1023.3 4/ 6 3/ 6 DUCK 1800 42 51 280/ 5/ 5 1023.0 2 E DUCK 1800 54 N/A 3/ 6 OREGON INLET 1800 43 48 280/ 5/ 7 1023.4 13E OREGON INLT 1748 58 N/A 4/ 8 3/ 8 HATTERAS CG 1800 41 51 280/ 7/ 8 1022.8 DIAMOND BUOY 1810 45 73 280/ 6/ 10 1023.0 CAPE LOOKOUT 1800 220/ 3/ 5 1024.1 BEAUFORT LAB 1800 44 49 180/ 6/ 10 1023.5 30 SE NEW RVR IN 1808 45 64 270/ 2/ 6 1024.2 30 SE NEW RVR IN 1800 64 N/A 3/ 7 27 SE WRIGHTSVLE 1808 46 63 340/ 4/ 10 1024.4 5 SE WRIGHTSVLE 1808 45 56 160/ 2/ 4 1024.5 225 S CAPE HAT 1750 63 74 330/ 12/ 16 1022.6 6/ 8 5/ 8 41 SE CHARLESTON 1810 54 72 40/ 6/ 10 1024.5 $$

USA.gov is the U.S. government's official web portal to all federal, state and local government web resources and services.